World > North America > United States > Missouri

Ludlow, Missouri Regional Weather

Lat: 39.65N, Lon: 93.7W
Wx Zone: MOZ023Web Search
Ludlow Weather Warning NWS WEATHER ALERT FOR THE LUDLOW, MO AREA - Issued: 222 PM CDT Sat Apr 17 2021 Ludlow Weather Warning  

If you are on your PC, you can easily pass this page to your phone by scanning the QR Code near the bottom with your camera.

Feedback


°F Click to change Ludlow hourly weather to Imperial units.Click to change Ludlow hourly weather to Metric units. °C
Ludlow Weather Map
UTC Time: 4/17/2021, 21:06
Your Time:

Ludlow, MO Regional Weather

Expires:202104172200;;708913
ASUS43 KEAX 172105
RWREAX

WEATHER ROUNDUP FOR EASTERN KANSAS AND NORTHWEST MISSOURI
NATIONAL WEATHER SERVICE KANSAS CITY/PLEASANT HILL MO
400 PM CDT SAT APR 17 2021


MOZ001>008-011>017-020>025-030>033-038>040-044>046-053-054-172200-
...NORTHERN AND CENTRAL MISSOURI...
  
CITY           SKY/WX    TMP DP  RH WIND       PRES   REMARKS
ST. JOSEPH     CLOUDY    58  38  47 NW16      30.04F                  
MOSBY          PTSUNNY   52  43  71 SW3       30.03F                  
HARRISONVILLE  CLOUDY    55  43  62 W8        30.07F                  
WHITEMAN AFB   DRIZZLE   52  41  66 W6        29.99F                  
CLINTON        CLOUDY    54  43  66 W8        30.04F                  
SEDALIA        CLOUDY    53  43  68 W9        30.03F                  
MARSHALL       PTSUNNY   55  43  62 N8        30.02F                  
CHILLICOTHE      N/A     59  42  53 VRB5      30.01S                  
MOBERLY        PTSUNNY   57  41  54 W8        30.00F                  
KIRKSVILLE     CLOUDY    58  42  55 W6        29.97F                  

$$


SKY/WX - Weather  TMP - Temperature  DP - Dew Point  RH - Relative Humidity
WIND - Wind Direction/Speed PRES - Barometric Pressure VSB - Visibility
WCI - Wind Chill Index E13G22 Wind - East Wind 13 mph/Gusts of 22 mph